Wetterdaten: Donnerstag, 15.11.2012
Datum Zeit Temperatur Luftfeuchte Luftdruck Regen Wind Richtung Richtung Sonnenschein ET UV Solar Taupunkt Windchill Windben
15.11.2012 00:00 1,9 C 95 % 1026,9 hPa 0,0 l/m 1,8 km/h (1 Bft) O-NO 65 0 min 0,000 mm 0,0 UV-I 0 W/m 1,2 C 1,9 C 6,4 km/h (2 Bft)
15.11.2012 00:05 2,0 C 94 % 1026,9 hPa 0,0 l/m 2,1 km/h (1 Bft) O-NO 58 0 min 0,000 mm 0,0 UV-I 0 W/m 1,1 C 2,0 C 8,0 km/h (2 Bft)
15.11.2012 00:10 2,0 C 94 % 1026,9 hPa 0,0 l/m 2,6 km/h (1 Bft) O 99 0 min 0,000 mm 0,0 UV-I 0 W/m 1,1 C 2,0 C 6,4 km/h (2 Bft)
15.11.2012 00:15 2,1 C 94 % 1026,9 hPa 0,0 l/m 1,6 km/h (1 Bft) O-NO 58 0 min 0,000 mm 0,0 UV-I 0 W/m 1,2 C 2,1 C 4,8 km/h (1 Bft)
15.11.2012 00:20 2,1 C 94 % 1026,9 hPa 0,0 l/m 2,4 km/h (1 Bft) O-NO 61 0 min 0,000 mm 0,0 UV-I 0 W/m 1,2 C 2,1 C 6,4 km/h (2 Bft)
15.11.2012 00:25 2,2 C 94 % 1026,9 hPa 0,0 l/m 1,9 km/h (1 Bft) O-NO 68 0 min 0,000 mm 0,0 UV-I 0 W/m 1,3 C 2,2 C 4,8 km/h (1 Bft)
15.11.2012 00:30 2,2 C 94 % 1026,8 hPa 0,0 l/m 0,8 km/h (0 Bft) NO 53 0 min 0,000 mm 0,0 UV-I 0 W/m 1,3 C 2,2 C 3,2 km/h (1 Bft)
15.11.2012 00:35 2,2 C 94 % 1026,8 hPa 0,0 l/m 1,2 km/h (1 Bft) O-NO 75 0 min 0,000 mm 0,0 UV-I 0 W/m 1,3 C 2,2 C 3,2 km/h (1 Bft)
15.11.2012 00:40 2,2 C 94 % 1026,9 hPa 0,0 l/m 0,9 km/h (0 Bft) O-NO 75 0 min 0,000 mm 0,0 UV-I 0 W/m 1,3 C 2,2 C 3,2 km/h (1 Bft)
15.11.2012 00:45 2,2 C 94 % 1026,8 hPa 0,0 l/m 0,0 km/h (0 Bft) O-NO 75 0 min 0,000 mm 0,0 UV-I 0 W/m 1,3 C 2,2 C 0,0 km/h (0 Bft)
15.11.2012 00:50 2,2 C 94 % 1026,7 hPa 0,0 l/m 0,1 km/h (0 Bft) O-NO 75 0 min 0,000 mm 0,0 UV-I 0 W/m 1,3 C 2,2 C 1,6 km/h (1 Bft)
15.11.2012 00:55 2,3 C 94 % 1026,7 hPa 0,0 l/m 0,1 km/h (0 Bft) O-NO 75 0 min 0,000 mm 0,0 UV-I 0 W/m 1,4 C 2,3 C 1,6 km/h (1 Bft)
15.11.2012 01:00 2,3 C 94 % 1026,6 hPa 0,0 l/m 0,0 km/h (0 Bft) O-NO 75 0 min 0,000 mm 0,0 UV-I 0 W/m 1,4 C 2,3 C 0,0 km/h (0 Bft)
15.11.2012 01:05 2,3 C 94 % 1026,6 hPa 0,0 l/m 0,1 km/h (0 Bft) O-NO 75 0 min 0,000 mm 0,0 UV-I 0 W/m 1,4 C 2,3 C 1,6 km/h (1 Bft)
15.11.2012 01:10 2,3 C 94 % 1026,5 hPa 0,0 l/m 0,0 km/h (0 Bft) O-NO 75 0 min 0,000 mm 0,0 UV-I 0 W/m 1,4 C 2,3 C 0,0 km/h (0 Bft)
15.11.2012 01:15 2,3 C 94 % 1026,4 hPa 0,0 l/m 0,0 km/h (0 Bft) O-NO 75 0 min 0,000 mm 0,0 UV-I 0 W/m 1,4 C 2,3 C 0,0 km/h (0 Bft)
15.11.2012 01:20 2,3 C 94 % 1026,5 hPa 0,0 l/m 0,0 km/h (0 Bft) O-NO 75 0 min 0,000 mm 0,0 UV-I 0 W/m 1,4 C 2,3 C 0,0 km/h (0 Bft)
15.11.2012 01:25 2,3 C 94 % 1026,4 hPa 0,0 l/m 0,0 km/h (0 Bft) O-NO 75 0 min 0,000 mm 0,0 UV-I 0 W/m 1,4 C 2,3 C 0,0 km/h (0 Bft)
15.11.2012 01:30 2,3 C 94 % 1026,4 hPa 0,0 l/m 0,0 km/h (0 Bft) O-NO 75 0 min 0,000 mm 0,0 UV-I 0 W/m 1,4 C 2,3 C 0,0 km/h (0 Bft)
15.11.2012 01:35 2,3 C 94 % 1026,4 hPa 0,0 l/m 0,0 km/h (0 Bft) O-NO 75 0 min 0,000 mm 0,0 UV-I 0 W/m 1,4 C 2,3 C 1,6 km/h (1 Bft)
15.11.2012 01:40 2,3 C 94 % 1026,3 hPa 0,0 l/m 0,0 km/h (0 Bft) O-NO 75 0 min 0,000 mm 0,0 UV-I 0 W/m 1,4 C 2,3 C 0,0 km/h (0 Bft)
15.11.2012 01:45 2,3 C 94 % 1026,4 hPa 0,0 l/m 0,0 km/h (0 Bft) O-NO 75 0 min 0,000 mm 0,0 UV-I 0 W/m 1,4 C 2,3 C 1,6 km/h (1 Bft)
15.11.2012 01:50 2,3 C 94 % 1026,3 hPa 0,0 l/m 0,0 km/h (0 Bft) O-NO 75 0 min 0,000 mm 0,0 UV-I 0 W/m 1,4 C 2,3 C 1,6 km/h (1 Bft)
15.11.2012 01:55 2,3 C 94 % 1026,2 hPa 0,0 l/m 0,2 km/h (0 Bft) O-NO 75 0 min 0,000 mm 0,0 UV-I 0 W/m 1,4 C 2,3 C 1,6 km/h (1 Bft)
15.11.2012 02:00 2,3 C 94 % 1026,1 hPa 0,0 l/m 0,1 km/h (0 Bft) O-NO 75 0 min 0,000 mm 0,0 UV-I 0 W/m 1,4 C 2,3 C 1,6 km/h (1 Bft)
15.11.2012 02:05 2,3 C 94 % 1026,2 hPa 0,0 l/m 0,1 km/h (0 Bft) O-NO 75 0 min 0,000 mm 0,0 UV-I 0 W/m 1,4 C 2,3 C 1,6 km/h (1 Bft)
15.11.2012 02:10 2,3 C 94 % 1026,1 hPa 0,0 l/m 0,0 km/h (0 Bft) O-NO 75 0 min 0,000 mm 0,0 UV-I 0 W/m 1,4 C 2,3 C 0,0 km/h (0 Bft)
15.11.2012 02:15 2,3 C 94 % 1026,1 hPa 0,0 l/m 0,7 km/h (0 Bft) O-NO 75 0 min 0,000 mm 0,0 UV-I 0 W/m 1,4 C 2,3 C 3,2 km/h (1 Bft)
15.11.2012 02:20 2,3 C 94 % 1026,1 hPa 0,0 l/m 0,0 km/h (0 Bft) O-NO 75 0 min 0,000 mm 0,0 UV-I 0 W/m 1,4 C 2,3 C 0,0 km/h (0 Bft)
15.11.2012 02:25 2,3 C 94 % 1026,2 hPa 0,0 l/m 0,0 km/h (0 Bft) O-NO 75 0 min 0,000 mm 0,0 UV-I 0 W/m 1,4 C 2,3 C 1,6 km/h (1 Bft)
15.11.2012 02:30 2,3 C 94 % 1026,2 hPa 0,0 l/m 0,0 km/h (0 Bft) O-NO 75 0 min 0,000 mm 0,0 UV-I 0 W/m 1,4 C 2,3 C 1,6 km/h (1 Bft)
15.11.2012 02:35 2,4 C 94 % 1026,1 hPa 0,0 l/m 0,0 km/h (0 Bft) O-NO 75 0 min 0,000 mm 0,0 UV-I 0 W/m 1,5 C 2,4 C 0,0 km/h (0 Bft)
15.11.2012 02:40 2,4 C 94 % 1026,1 hPa 0,0 l/m 0,6 km/h (0 Bft) O-NO 76 0 min 0,000 mm 0,0 UV-I 0 W/m 1,5 C 2,4 C 3,2 km/h (1 Bft)
15.11.2012 02:45 2,4 C 94 % 1026,2 hPa 0,0 l/m 0,0 km/h (0 Bft) O-NO 76 0 min 0,000 mm 0,0 UV-I 0 W/m 1,5 C 2,4 C 0,0 km/h (0 Bft)
15.11.2012 02:50 2,4 C 94 % 1026,1 hPa 0,0 l/m 0,0 km/h (0 Bft) O-NO 76 0 min 0,000 mm 0,0 UV-I 0 W/m 1,5 C 2,4 C 1,6 km/h (1 Bft)
15.11.2012 02:55 2,4 C 94 % 1026,2 hPa 0,0 l/m 0,6 km/h (0 Bft) O-NO 76 0 min 0,000 mm 0,0 UV-I 0 W/m 1,5 C 2,4 C 3,2 km/h (1 Bft)
15.11.2012 03:00 2,4 C 94 % 1026,1 hPa 0,0 l/m 0,4 km/h (0 Bft) O-NO 76 0 min 0,000 mm 0,0 UV-I 0 W/m 1,5 C 2,4 C 1,6 km/h (1 Bft)
15.11.2012 03:05 2,4 C 94 % 1025,9 hPa 0,0 l/m 0,4 km/h (0 Bft) O-NO 76 0 min 0,000 mm 0,0 UV-I 0 W/m 1,5 C 2,4 C 3,2 km/h (1 Bft)
15.11.2012 03:10 2,4 C 94 % 1025,9 hPa 0,0 l/m 0,1 km/h (0 Bft) O-NO 76 0 min 0,000 mm 0,0 UV-I 0 W/m 1,5 C 2,4 C 1,6 km/h (1 Bft)
15.11.2012 03:15 2,4 C 94 % 1025,9 hPa 0,0 l/m 0,2 km/h (0 Bft) O-NO 76 0 min 0,000 mm 0,0 UV-I 0 W/m 1,5 C 2,4 C 3,2 km/h (1 Bft)
15.11.2012 03:20 2,5 C 94 % 1025,9 hPa 0,0 l/m 0,4 km/h (0 Bft) O-NO 76 0 min 0,000 mm 0,0 UV-I 0 W/m 1,6 C 2,5 C 1,6 km/h (1 Bft)
15.11.2012 03:25 2,6 C 94 % 1025,8 hPa 0,0 l/m 0,4 km/h (0 Bft) O-NO 76 0 min 0,000 mm 0,0 UV-I 0 W/m 1,7 C 2,6 C 1,6 km/h (1 Bft)
15.11.2012 03:30 2,6 C 94 % 1025,9 hPa 0,0 l/m 2,0 km/h (1 Bft) S-SO 155 0 min 0,000 mm 0,0 UV-I 0 W/m 1,7 C 2,6 C 8,0 km/h (2 Bft)
15.11.2012 03:35 2,6 C 94 % 1025,8 hPa 0,0 l/m 0,1 km/h (0 Bft) S-SO 155 0 min 0,000 mm 0,0 UV-I 0 W/m 1,7 C 2,6 C 1,6 km/h (1 Bft)
15.11.2012 03:40 2,6 C 94 % 1025,8 hPa 0,0 l/m 0,0 km/h (0 Bft) S-SO 155 0 min 0,000 mm 0,0 UV-I 0 W/m 1,7 C 2,6 C 1,6 km/h (1 Bft)
15.11.2012 03:45 2,6 C 94 % 1025,7 hPa 0,0 l/m 0,6 km/h (0 Bft) NO 44 0 min 0,000 mm 0,0 UV-I 0 W/m 1,7 C 2,6 C 3,2 km/h (1 Bft)
15.11.2012 03:50 2,7 C 94 % 1025,7 hPa 0,0 l/m 1,5 km/h (1 Bft) O-NO 69 0 min 0,000 mm 0,0 UV-I 0 W/m 1,8 C 2,7 C 4,8 km/h (1 Bft)
15.11.2012 03:55 2,7 C 94 % 1025,6 hPa 0,0 l/m 0,3 km/h (0 Bft) O-NO 70 0 min 0,000 mm 0,0 UV-I 0 W/m 1,8 C 2,7 C 3,2 km/h (1 Bft)
15.11.2012 04:00 2,7 C 94 % 1025,5 hPa 0,0 l/m 0,2 km/h (0 Bft) S-SW 194 0 min 0,000 mm 0,0 UV-I 0 W/m 1,8 C 2,7 C 3,2 km/h (1 Bft)
15.11.2012 04:05 2,7 C 94 % 1025,4 hPa 0,0 l/m 0,0 km/h (0 Bft) S-SW 194 0 min 0,000 mm 0,0 UV-I 0 W/m 1,8 C 2,7 C 1,6 km/h (1 Bft)
15.11.2012 04:10 2,8 C 94 % 1025,4 hPa 0,0 l/m 0,1 km/h (0 Bft) S-SW 194 0 min 0,000 mm 0,0 UV-I 0 W/m 1,9 C 2,8 C 1,6 km/h (1 Bft)
15.11.2012 04:15 2,8 C 93 % 1025,5 hPa 0,0 l/m 0,2 km/h (0 Bft) O-NO 58 0 min 0,000 mm 0,0 UV-I 0 W/m 1,8 C 2,8 C 3,2 km/h (1 Bft)
15.11.2012 04:20 2,8 C 93 % 1025,4 hPa 0,0 l/m 0,6 km/h (0 Bft) O-NO 58 0 min 0,000 mm 0,0 UV-I 0 W/m 1,8 C 2,8 C 3,2 km/h (1 Bft)
15.11.2012 04:25 2,8 C 93 % 1025,4 hPa 0,0 l/m 0,5 km/h (0 Bft) O-NO 59 0 min 0,000 mm 0,0 UV-I 0 W/m 1,8 C 2,8 C 3,2 km/h (1 Bft)
15.11.2012 04:30 2,9 C 93 % 1025,3 hPa 0,0 l/m 0,3 km/h (0 Bft) O-NO 59 0 min 0,000 mm 0,0 UV-I 0 W/m 1,9 C 2,9 C 1,6 km/h (1 Bft)
15.11.2012 04:35 2,9 C 93 % 1025,3 hPa 0,0 l/m 0,0 km/h (0 Bft) O-NO 59 0 min 0,000 mm 0,0 UV-I 0 W/m 1,9 C 2,9 C 1,6 km/h (1 Bft)
15.11.2012 04:40 2,9 C 93 % 1025,3 hPa 0,0 l/m 0,2 km/h (0 Bft) O-NO 59 0 min 0,000 mm 0,0 UV-I 0 W/m 1,9 C 2,9 C 3,2 km/h (1 Bft)
15.11.2012 04:45 2,9 C 93 % 1025,3 hPa 0,0 l/m 0,1 km/h (0 Bft) O-NO 59 0 min 0,000 mm 0,0 UV-I 0 W/m 1,9 C 2,9 C 1,6 km/h (1 Bft)
15.11.2012 04:50 2,9 C 93 % 1025,3 hPa 0,0 l/m 0,3 km/h (0 Bft) O-NO 59 0 min 0,000 mm 0,0 UV-I 0 W/m 1,9 C 2,9 C 3,2 km/h (1 Bft)
15.11.2012 04:55 2,9 C 93 % 1025,3 hPa 0,0 l/m 0,4 km/h (0 Bft) O-NO 61 0 min 0,000 mm 0,0 UV-I 0 W/m 1,9 C 2,9 C 3,2 km/h (1 Bft)
15.11.2012 05:00 2,9 C 93 % 1025,3 hPa 0,0 l/m 0,9 km/h (0 Bft) O-NO 65 0 min 0,000 mm 0,0 UV-I 0 W/m 1,9 C 2,9 C 4,8 km/h (1 Bft)
15.11.2012 05:05 2,9 C 93 % 1025,3 hPa 0,0 l/m 0,0 km/h (0 Bft) O-NO 65 0 min 0,000 mm 0,0 UV-I 0 W/m 1,9 C 2,9 C 0,0 km/h (0 Bft)
15.11.2012 05:10 3,0 C 93 % 1025,2 hPa 0,0 l/m 0,0 km/h (0 Bft) O-NO 65 0 min 0,000 mm 0,0 UV-I 0 W/m 2,0 C 3,0 C 0,0 km/h (0 Bft)
15.11.2012 05:15 3,0 C 93 % 1025,1 hPa 0,0 l/m 0,4 km/h (0 Bft) O-NO 65 0 min 0,000 mm 0,0 UV-I 0 W/m 2,0 C 3,0 C 3,2 km/h (1 Bft)
15.11.2012 05:20 3,0 C 93 % 1025,1 hPa 0,0 l/m 0,5 km/h (0 Bft) O-SO 108 0 min 0,000 mm 0,0 UV-I 0 W/m 2,0 C 3,0 C 4,8 km/h (1 Bft)
15.11.2012 05:25 3,0 C 93 % 1025,1 hPa 0,0 l/m 0,0 km/h (0 Bft) O-SO 108 0 min 0,000 mm 0,0 UV-I 0 W/m 2,0 C 3,0 C 0,0 km/h (0 Bft)
15.11.2012 05:30 3,0 C 93 % 1025,2 hPa 0,0 l/m 0,0 km/h (0 Bft) O-SO 108 0 min 0,000 mm 0,0 UV-I 0 W/m 2,0 C 3,0 C 0,0 km/h (0 Bft)
15.11.2012 05:35 3,0 C 93 % 1025,2 hPa 0,0 l/m 0,0 km/h (0 Bft) O-SO 108 0 min 0,000 mm 0,0 UV-I 0 W/m 2,0 C 3,0 C 0,0 km/h (0 Bft)
15.11.2012 05:40 3,0 C 93 % 1025,3 hPa 0,0 l/m 0,2 km/h (0 Bft) O-SO 108 0 min 0,000 mm 0,0 UV-I 0 W/m 2,0 C 3,0 C 1,6 km/h (1 Bft)
15.11.2012 05:45 3,0 C 93 % 1025,1 hPa 0,0 l/m 0,3 km/h (0 Bft) NO 41 0 min 0,000 mm 0,0 UV-I 0 W/m 2,0 C 3,0 C 3,2 km/h (1 Bft)
15.11.2012 05:50 3,1 C 92 % 1025,1 hPa 0,0 l/m 3,3 km/h (1 Bft) NO 56 0 min 0,000 mm 0,0 UV-I 0 W/m 1,9 C 3,1 C 6,4 km/h (2 Bft)
15.11.2012 05:55 3,1 C 92 % 1025,0 hPa 0,0 l/m 1,6 km/h (1 Bft) O-SO 105 0 min 0,000 mm 0,0 UV-I 0 W/m 1,9 C 3,1 C 4,8 km/h (1 Bft)
15.11.2012 06:00 3,1 C 92 % 1025,1 hPa 0,0 l/m 1,9 km/h (1 Bft) NO 46 0 min 0,000 mm 0,0 UV-I 0 W/m 1,9 C 3,1 C 4,8 km/h (1 Bft)
15.11.2012 06:05 3,1 C 92 % 1025,0 hPa 0,0 l/m 1,1 km/h (1 Bft) O-NO 61 0 min 0,000 mm 0,0 UV-I 0 W/m 1,9 C 3,1 C 4,8 km/h (1 Bft)
15.11.2012 06:10 3,1 C 92 % 1025,0 hPa 0,0 l/m 0,0 km/h (0 Bft) O-NO 61 0 min 0,000 mm 0,0 UV-I 0 W/m 1,9 C 3,1 C 0,0 km/h (0 Bft)
15.11.2012 06:15 3,1 C 92 % 1025,0 hPa 0,0 l/m 0,7 km/h (0 Bft) O-NO 63 0 min 0,000 mm 0,0 UV-I 0 W/m 1,9 C 3,1 C 3,2 km/h (1 Bft)
15.11.2012 06:20 3,1 C 92 % 1024,9 hPa 0,0 l/m 1,6 km/h (1 Bft) O 93 0 min 0,000 mm 0,0 UV-I 0 W/m 1,9 C 3,1 C 6,4 km/h (2 Bft)
15.11.2012 06:25 3,1 C 92 % 1024,9 hPa 0,0 l/m 2,7 km/h (1 Bft) NO 55 0 min 0,000 mm 0,0 UV-I 0 W/m 1,9 C 3,1 C 6,4 km/h (2 Bft)
15.11.2012 06:30 3,1 C 92 % 1024,9 hPa 0,0 l/m 2,3 km/h (1 Bft) O-SO 113 0 min 0,000 mm 0,0 UV-I 0 W/m 1,9 C 3,1 C 4,8 km/h (1 Bft)
15.11.2012 06:35 3,1 C 92 % 1024,8 hPa 0,0 l/m 3,7 km/h (1 Bft) O-NO 72 0 min 0,000 mm 0,0 UV-I 0 W/m 1,9 C 3,1 C 8,0 km/h (2 Bft)
15.11.2012 06:40 3,1 C 92 % 1025,0 hPa 0,0 l/m 2,1 km/h (1 Bft) O 81 0 min 0,000 mm 0,0 UV-I 0 W/m 1,9 C 3,1 C 6,4 km/h (2 Bft)
15.11.2012 06:45 3,2 C 92 % 1025,0 hPa 0,0 l/m 3,3 km/h (1 Bft) SO 127 0 min 0,000 mm 0,0 UV-I 0 W/m 2,0 C 3,2 C 8,0 km/h (2 Bft)
15.11.2012 06:50 3,2 C 92 % 1025,0 hPa 0,0 l/m 2,2 km/h (1 Bft) O 95 0 min 0,000 mm 0,0 UV-I 0 W/m 2,0 C 3,2 C 6,4 km/h (2 Bft)
15.11.2012 06:55 3,2 C 92 % 1025,0 hPa 0,0 l/m 1,2 km/h (1 Bft) O-SO 102 0 min 0,000 mm 0,0 UV-I 0 W/m 2,0 C 3,2 C 4,8 km/h (1 Bft)
15.11.2012 07:00 3,2 C 92 % 1025,0 hPa 0,0 l/m 2,2 km/h (1 Bft) O-SO 114 0 min 0,000 mm 0,0 UV-I 0 W/m 2,0 C 3,2 C 6,4 km/h (2 Bft)
15.11.2012 07:05 3,2 C 92 % 1025,0 hPa 0,0 l/m 0,7 km/h (0 Bft) O-NO 71 0 min 0,000 mm 0,0 UV-I 0 W/m 2,0 C 3,2 C 3,2 km/h (1 Bft)
15.11.2012 07:10 3,2 C 92 % 1025,0 hPa 0,0 l/m 1,8 km/h (1 Bft) O-NO 59 0 min 0,000 mm 0,0 UV-I 0 W/m 2,0 C 3,2 C 4,8 km/h (1 Bft)
15.11.2012 07:15 3,2 C 92 % 1025,1 hPa 0,0 l/m 0,7 km/h (0 Bft) O 87 0 min 0,000 mm 0,0 UV-I 0 W/m 2,0 C 3,2 C 3,2 km/h (1 Bft)
15.11.2012 07:20 3,2 C 92 % 1025,2 hPa 0,0 l/m 3,4 km/h (1 Bft) NO 53 0 min 0,000 mm 0,0 UV-I 0 W/m 2,0 C 3,2 C 8,0 km/h (2 Bft)
15.11.2012 07:25 3,2 C 92 % 1025,1 hPa 0,0 l/m 4,5 km/h (1 Bft) NO 43 0 min 0,000 mm 0,0 UV-I 0 W/m 2,0 C 3,2 C 9,7 km/h (2 Bft)
15.11.2012 07:30 3,2 C 92 % 1025,2 hPa 0,0 l/m 3,4 km/h (1 Bft) O-NO 72 0 min 0,000 mm 0,0 UV-I 0 W/m 2,0 C 3,2 C 8,0 km/h (2 Bft)
15.11.2012 07:35 3,2 C 92 % 1025,1 hPa 0,0 l/m 4,7 km/h (1 Bft) O 91 0 min 0,000 mm 0,0 UV-I 0 W/m 2,0 C 3,2 C 9,7 km/h (2 Bft)
15.11.2012 07:40 3,2 C 92 % 1025,1 hPa 0,0 l/m 2,9 km/h (1 Bft) O-NO 58 0 min 0,000 mm 0,0 UV-I 0 W/m 2,0 C 3,2 C 8,0 km/h (2 Bft)
15.11.2012 07:45 3,2 C 91 % 1025,2 hPa 0,0 l/m 5,5 km/h (1 Bft) O-NO 66 0 min 0,000 mm 0,0 UV-I 0 W/m 1,9 C 3,2 C 11,3 km/h (2 Bft)
15.11.2012 07:50 3,1 C 92 % 1025,1 hPa 0,0 l/m 3,3 km/h (1 Bft) O-NO 77 0 min 0,000 mm 0,0 UV-I 0 W/m 1,9 C 3,1 C 8,0 km/h (2 Bft)
15.11.2012 07:55 3,2 C 92 % 1025,2 hPa 0,0 l/m 2,4 km/h (1 Bft) O 95 0 min 0,000 mm 0,0 UV-I 0 W/m 2,0 C 3,2 C 4,8 km/h (1 Bft)
15.11.2012 08:00 3,1 C 92 % 1025,2 hPa 0,0 l/m 2,5 km/h (1 Bft) O 95 0 min 0,000 mm 0,0 UV-I 0 W/m 1,9 C 3,1 C 6,4 km/h (2 Bft)
15.11.2012 08:05 3,1 C 92 % 1025,2 hPa 0,0 l/m 1,7 km/h (1 Bft) O-NO 69 0 min 0,000 mm 0,0 UV-I 0 W/m 1,9 C 3,1 C 6,4 km/h (2 Bft)
15.11.2012 08:10 3,1 C 92 % 1025,2 hPa 0,0 l/m 3,3 km/h (1 Bft) O 95 0 min 0,000 mm 0,0 UV-I 0 W/m 1,9 C 3,1 C 8,0 km/h (2 Bft)
15.11.2012 08:15 3,1 C 92 % 1025,2 hPa 0,0 l/m 2,7 km/h (1 Bft) O 81 0 min 0,000 mm 0,0 UV-I 5 W/m 1,9 C 3,1 C 8,0 km/h (2 Bft)
15.11.2012 08:20 3,1 C 92 % 1025,2 hPa 0,0 l/m 1,5 km/h (1 Bft) O 95 0 min 0,000 mm 0,0 UV-I 5 W/m 1,9 C 3,1 C 4,8 km/h (1 Bft)
15.11.2012 08:25 3,1 C 92 % 1025,2 hPa 0,0 l/m 2,5 km/h (1 Bft) O-NO 65 0 min 0,000 mm 0,0 UV-I 7 W/m 1,9 C 3,1 C 8,0 km/h (2 Bft)
15.11.2012 08:30 3,1 C 92 % 1025,2 hPa 0,0 l/m 2,9 km/h (1 Bft) NO 48 0 min 0,000 mm 0,0 UV-I 9 W/m 1,9 C 3,1 C 6,4 km/h (2 Bft)
15.11.2012 08:35 3,1 C 92 % 1025,2 hPa 0,0 l/m 4,3 km/h (1 Bft) O-NO 73 0 min 0,000 mm 0,0 UV-I 9 W/m 1,9 C 3,1 C 11,3 km/h (2 Bft)
15.11.2012 08:40 3,1 C 92 % 1025,4 hPa 0,0 l/m 4,4 km/h (1 Bft) NO 53 0 min 0,000 mm 0,0 UV-I 11 W/m 1,9 C 3,1 C 11,3 km/h (2 Bft)
15.11.2012 08:45 3,1 C 92 % 1025,4 hPa 0,0 l/m 1,4 km/h (1 Bft) O 89 0 min 0,000 mm 0,0 UV-I 12 W/m 1,9 C 3,1 C 4,8 km/h (1 Bft)
15.11.2012 08:50 3,1 C 92 % 1025,4 hPa 0,0 l/m 0,5 km/h (0 Bft) O 89 0 min 0,000 mm 0,0 UV-I 12 W/m 1,9 C 3,1 C 3,2 km/h (1 Bft)
15.11.2012 08:55 3,2 C 92 % 1025,4 hPa 0,0 l/m 1,3 km/h (1 Bft) SO 134 0 min 0,000 mm 0,0 UV-I 12 W/m 2,0 C 3,2 C 6,4 km/h (2 Bft)
15.11.2012 09:00 3,2 C 92 % 1025,5 hPa 0,0 l/m 1,9 km/h (1 Bft) O-SO 115 0 min 0,000 mm 0,0 UV-I 14 W/m 2,0 C 3,2 C 6,4 km/h (2 Bft)
15.11.2012 09:05 3,2 C 92 % 1025,5 hPa 0,0 l/m 0,8 km/h (0 Bft) SO 144 0 min 0,000 mm 0,0 UV-I 16 W/m 2,0 C 3,2 C 3,2 km/h (1 Bft)
15.11.2012 09:10 3,2 C 91 % 1025,4 hPa 0,0 l/m 0,7 km/h (0 Bft) O-SO 115 0 min 0,000 mm 0,0 UV-I 16 W/m 1,9 C 3,2 C 3,2 km/h (1 Bft)
15.11.2012 09:15 3,2 C 92 % 1025,3 hPa 0,0 l/m 0,1 km/h (0 Bft) O-SO 114 0 min 0,000 mm 0,0 UV-I 16 W/m 2,0 C 3,2 C 1,6 km/h (1 Bft)
15.11.2012 09:20 3,2 C 92 % 1025,4 hPa 0,0 l/m 0,4 km/h (0 Bft) O 81 0 min 0,000 mm 0,0 UV-I 18 W/m 2,0 C 3,2 C 3,2 km/h (1 Bft)
15.11.2012 09:25 3,2 C 91 % 1025,4 hPa 0,0 l/m 0,8 km/h (0 Bft) O-SO 121 0 min 0,000 mm 0,0 UV-I 19 W/m 1,9 C 3,2 C 3,2 km/h (1 Bft)
15.11.2012 09:30 3,2 C 91 % 1025,3 hPa 0,0 l/m 1,1 km/h (1 Bft) S-SO 148 0 min 0,000 mm 0,0 UV-I 21 W/m 1,9 C 3,2 C 4,8 km/h (1 Bft)
15.11.2012 09:35 3,2 C 92 % 1025,2 hPa 0,0 l/m 1,0 km/h (0 Bft) S-SO 148 0 min 0,000 mm 0,0 UV-I 23 W/m 2,0 C 3,2 C 3,2 km/h (1 Bft)
15.11.2012 09:40 3,2 C 91 % 1025,2 hPa 0,0 l/m 1,7 km/h (1 Bft) S-SW 200 0 min 0,000 mm 0,0 UV-I 25 W/m 1,9 C 3,2 C 8,0 km/h (2 Bft)
15.11.2012 09:45 3,2 C 91 % 1025,2 hPa 0,0 l/m 1,5 km/h (1 Bft) S-SO 155 0 min 0,000 mm 0,0 UV-I 25 W/m 1,9 C 3,2 C 4,8 km/h (1 Bft)
15.11.2012 09:50 3,2 C 92 % 1025,3 hPa 0,0 l/m 0,3 km/h (0 Bft) O-SO 114 0 min 0,000 mm 0,0 UV-I 25 W/m 2,0 C 3,2 C 3,2 km/h (1 Bft)
15.11.2012 09:55 3,2 C 92 % 1025,2 hPa 0,0 l/m 1,3 km/h (1 Bft) O-NO 73 0 min 0,000 mm 0,0 UV-I 25 W/m 2,0 C 3,2 C 4,8 km/h (1 Bft)
15.11.2012 10:00 3,3 C 92 % 1025,1 hPa 0,0 l/m 2,7 km/h (1 Bft) O 84 0 min 0,000 mm 0,0 UV-I 26 W/m 2,1 C 3,3 C 8,0 km/h (2 Bft)
15.11.2012 10:05 3,2 C 92 % 1025,1 hPa 0,0 l/m 3,7 km/h (1 Bft) O-SO 115 0 min 0,000 mm 0,0 UV-I 28 W/m 2,0 C 3,2 C 8,0 km/h (2 Bft)
15.11.2012 10:10 3,2 C 92 % 1025,2 hPa 0,0 l/m 4,9 km/h (1 Bft) O 80 0 min 0,000 mm 0,0 UV-I 30 W/m 2,0 C 3,2 C 9,7 km/h (2 Bft)
15.11.2012 10:15 3,2 C 91 % 1025,2 hPa 0,0 l/m 2,5 km/h (1 Bft) O 92 0 min 0,000 mm 0,0 UV-I 32 W/m 1,9 C 3,2 C 6,4 km/h (2 Bft)
15.11.2012 10:20 3,2 C 92 % 1025,2 hPa 0,0 l/m 2,7 km/h (1 Bft) NO 51 0 min 0,000 mm 0,0 UV-I 30 W/m 2,0 C 3,2 C 6,4 km/h (2 Bft)
15.11.2012 10:25 3,2 C 92 % 1025,2 hPa 0,0 l/m 1,2 km/h (1 Bft) O-SO 102 0 min 0,000 mm 0,0 UV-I 28 W/m 2,0 C 3,2 C 4,8 km/h (1 Bft)
15.11.2012 10:30 3,2 C 92 % 1025,2 hPa 0,0 l/m 0,5 km/h (0 Bft) SO 132 0 min 0,000 mm 0,0 UV-I 26 W/m 2,0 C 3,2 C 3,2 km/h (1 Bft)
15.11.2012 10:34 3,1 C 92 % 1025,2 hPa 0,0 l/m 4,1 km/h (1 Bft) S 187 0 min 0,000 mm 0,0 UV-I 30 W/m 1,9 C 3,1 C 11,3 km/h (2 Bft)
15.11.2012 10:35 3,1 C 92 % 1025,2 hPa 0,0 l/m 4,1 km/h (1 Bft) SO 140 0 min 0,000 mm 0,0 UV-I 30 W/m 1,9 C 3,1 C 6,4 km/h (2 Bft)
15.11.2012 10:40 3,1 C 92 % 1025,3 hPa 0,0 l/m 2,6 km/h (1 Bft) NO 55 0 min 0,000 mm 0,0 UV-I 32 W/m 1,9 C 3,1 C 8,0 km/h (2 Bft)
15.11.2012 10:45 3,1 C 92 % 1025,3 hPa 0,0 l/m 3,8 km/h (1 Bft) O-NO 64 0 min 0,000 mm 0,0 UV-I 30 W/m 1,9 C 3,1 C 8,0 km/h (2 Bft)
15.11.2012 10:50 3,1 C 92 % 1025,3 hPa 0,0 l/m 3,5 km/h (1 Bft) O-NO 59 0 min 0,000 mm 0,0 UV-I 32 W/m 1,9 C 3,1 C 6,4 km/h (2 Bft)
15.11.2012 10:55 3,1 C 92 % 1025,3 hPa 0,0 l/m 2,5 km/h (1 Bft) O-NO 59 0 min 0,000 mm 0,0 UV-I 32 W/m 1,9 C 3,1 C 4,8 km/h (1 Bft)
15.11.2012 11:00 3,1 C 92 % 1025,3 hPa 0,0 l/m 2,8 km/h (1 Bft) O-SO 116 0 min 0,000 mm 0,0 UV-I 32 W/m 1,9 C 3,1 C 8,0 km/h (2 Bft)
15.11.2012 11:05 3,0 C 92 % 1025,2 hPa 0,0 l/m 2,9 km/h (1 Bft) NO 50 0 min 0,025 mm 0,0 UV-I 32 W/m 1,8 C 3,0 C 6,4 km/h (2 Bft)
15.11.2012 11:10 3,0 C 92 % 1025,2 hPa 0,0 l/m 2,8 km/h (1 Bft) O-SO 119 0 min 0,000 mm 0,0 UV-I 33 W/m 1,8 C 3,0 C 6,4 km/h (2 Bft)
15.11.2012 11:15 3,0 C 92 % 1025,1 hPa 0,0 l/m 2,3 km/h (1 Bft) S 175 0 min 0,000 mm 0,0 UV-I 35 W/m 1,8 C 3,0 C 4,8 km/h (1 Bft)
15.11.2012 11:20 3,0 C 92 % 1025,1 hPa 0,0 l/m 1,0 km/h (0 Bft) S 170 0 min 0,000 mm 0,0 UV-I 37 W/m 1,8 C 3,0 C 3,2 km/h (1 Bft)
15.11.2012 11:25 3,0 C 92 % 1025,0 hPa 0,0 l/m 0,4 km/h (0 Bft) S-SW 192 0 min 0,000 mm 0,0 UV-I 35 W/m 1,8 C 3,0 C 3,2 km/h (1 Bft)
15.11.2012 11:30 3,1 C 92 % 1024,9 hPa 0,0 l/m 1,8 km/h (1 Bft) O-NO 68 0 min 0,000 mm 0,0 UV-I 39 W/m 1,9 C 3,1 C 6,4 km/h (2 Bft)
15.11.2012 11:35 3,0 C 92 % 1024,7 hPa 0,0 l/m 3,9 km/h (1 Bft) O-NO 69 0 min 0,000 mm 0,0 UV-I 40 W/m 1,8 C 3,0 C 11,3 km/h (2 Bft)
15.11.2012 11:40 2,9 C 92 % 1024,7 hPa 0,0 l/m 4,0 km/h (1 Bft) O 82 0 min 0,000 mm 0,0 UV-I 42 W/m 1,7 C 2,9 C 6,4 km/h (2 Bft)
15.11.2012 11:45 2,9 C 92 % 1024,8 hPa 0,0 l/m 3,5 km/h (1 Bft) O 88 0 min 0,000 mm 0,0 UV-I 40 W/m 1,7 C 2,9 C 9,7 km/h (2 Bft)
15.11.2012 11:50 2,8 C 92 % 1024,8 hPa 0,0 l/m 3,1 km/h (1 Bft) SO 133 0 min 0,000 mm 0,0 UV-I 39 W/m 1,6 C 2,8 C 8,0 km/h (2 Bft)
15.11.2012 11:55 2,8 C 92 % 1024,8 hPa 0,0 l/m 3,5 km/h (1 Bft) S 170 0 min 0,000 mm 0,0 UV-I 39 W/m 1,6 C 2,8 C 6,4 km/h (2 Bft)
15.11.2012 12:00 2,8 C 92 % 1024,8 hPa 0,0 l/m 1,9 km/h (1 Bft) NO 44 0 min 0,000 mm 0,0 UV-I 37 W/m 1,6 C 2,8 C 6,4 km/h (2 Bft)
15.11.2012 12:05 2,8 C 92 % 1024,8 hPa 0,0 l/m 4,5 km/h (1 Bft) NO 51 0 min 0,026 mm 0,0 UV-I 37 W/m 1,6 C 2,8 C 11,3 km/h (2 Bft)
15.11.2012 12:10 2,8 C 92 % 1024,8 hPa 0,0 l/m 3,4 km/h (1 Bft) O-NO 61 0 min 0,000 mm 0,0 UV-I 40 W/m 1,6 C 2,8 C 8,0 km/h (2 Bft)
15.11.2012 12:15 2,8 C 92 % 1024,7 hPa 0,0 l/m 3,4 km/h (1 Bft) O-NO 60 0 min 0,000 mm 0,0 UV-I 39 W/m 1,6 C 2,8 C 6,4 km/h (2 Bft)
15.11.2012 12:20 2,8 C 91 % 1024,6 hPa 0,0 l/m 2,7 km/h (1 Bft) O-SO 113 0 min 0,000 mm 0,0 UV-I 42 W/m 1,5 C 2,8 C 6,4 km/h (2 Bft)
15.11.2012 12:25 2,8 C 91 % 1024,6 hPa 0,0 l/m 3,4 km/h (1 Bft) O 91 0 min 0,000 mm 0,0 UV-I 40 W/m 1,5 C 2,8 C 9,7 km/h (2 Bft)
15.11.2012 12:30 2,7 C 92 % 1024,5 hPa 0,0 l/m 3,1 km/h (1 Bft) O-SO 112 0 min 0,000 mm 0,0 UV-I 40 W/m 1,5 C 2,7 C 4,8 km/h (1 Bft)
15.11.2012 12:35 2,7 C 92 % 1024,4 hPa 0,0 l/m 3,4 km/h (1 Bft) NO 52 0 min 0,000 mm 0,0 UV-I 49 W/m 1,5 C 2,7 C 9,7 km/h (2 Bft)
15.11.2012 12:45 2,7 C 92 % 1024,3 hPa 0,0 l/m 2,1 km/h (1 Bft) O-NO 61 0 min 0,000 mm 0,0 UV-I 42 W/m 1,5 C 2,7 C 6,4 km/h (2 Bft)
15.11.2012 12:50 2,8 C 92 % 1024,3 hPa 0,0 l/m 1,7 km/h (1 Bft) O-NO 67 0 min 0,000 mm 0,0 UV-I 42 W/m 1,6 C 2,8 C 8,0 km/h (2 Bft)
15.11.2012 12:55 2,8 C 92 % 1024,3 hPa 0,0 l/m 2,8 km/h (1 Bft) O 85 0 min 0,000 mm 0,0 UV-I 39 W/m 1,6 C 2,8 C 6,4 km/h (2 Bft)
15.11.2012 13:00 2,8 C 92 % 1024,3 hPa 0,0 l/m 7,5 km/h (2 Bft) NO 50 0 min 0,000 mm 0,0 UV-I 40 W/m 1,6 C 1,8 C 9,7 km/h (2 Bft)
15.11.2012 13:05 2,8 C 91 % 1024,3 hPa 0,0 l/m 3,2 km/h (1 Bft) O-SO 103 0 min 0,025 mm 0,0 UV-I 37 W/m 1,5 C 2,8 C 8,0 km/h (2 Bft)
15.11.2012 13:10 2,7 C 92 % 1024,2 hPa 0,0 l/m 3,6 km/h (1 Bft) O-SO 111 0 min 0,000 mm 0,0 UV-I 35 W/m 1,5 C 2,7 C 8,0 km/h (2 Bft)
15.11.2012 13:15 2,7 C 92 % 1024,0 hPa 0,0 l/m 4,8 km/h (1 Bft) O 98 0 min 0,000 mm 0,0 UV-I 37 W/m 1,5 C 2,7 C 9,7 km/h (2 Bft)
15.11.2012 13:20 2,7 C 92 % 1024,1 hPa 0,0 l/m 3,2 km/h (1 Bft) NO 42 0 min 0,000 mm 0,0 UV-I 37 W/m 1,5 C 2,7 C 8,0 km/h (2 Bft)
15.11.2012 13:25 2,7 C 92 % 1024,0 hPa 0,0 l/m 1,9 km/h (1 Bft) SO 134 0 min 0,000 mm 0,0 UV-I 35 W/m 1,5 C 2,7 C 4,8 km/h (1 Bft)
15.11.2012 13:30 2,7 C 91 % 1024,0 hPa 0,0 l/m 3,7 km/h (1 Bft) O-SO 115 0 min 0,000 mm 0,0 UV-I 35 W/m 1,4 C 2,7 C 8,0 km/h (2 Bft)
15.11.2012 13:35 2,6 C 92 % 1023,9 hPa 0,0 l/m 2,5 km/h (1 Bft) S-SO 157 0 min 0,000 mm 0,0 UV-I 37 W/m 1,4 C 2,6 C 8,0 km/h (2 Bft)
15.11.2012 13:40 2,6 C 92 % 1023,8 hPa 0,0 l/m 5,1 km/h (1 Bft) SO 132 0 min 0,000 mm 0,0 UV-I 37 W/m 1,4 C 2,6 C 12,9 km/h (3 Bft)
15.11.2012 13:45 2,6 C 92 % 1023,8 hPa 0,0 l/m 5,9 km/h (2 Bft) SO 132 0 min 0,000 mm 0,0 UV-I 40 W/m 1,4 C 2,6 C 11,3 km/h (2 Bft)
15.11.2012 13:50 2,6 C 92 % 1023,8 hPa 0,0 l/m 4,0 km/h (1 Bft) O-NO 61 0 min 0,000 mm 0,0 UV-I 35 W/m 1,4 C 2,6 C 9,7 km/h (2 Bft)
15.11.2012 13:55 2,7 C 92 % 1023,8 hPa 0,0 l/m 1,3 km/h (1 Bft) O-NO 78 0 min 0,000 mm 0,0 UV-I 30 W/m 1,5 C 2,7 C 6,4 km/h (2 Bft)
15.11.2012 14:00 2,7 C 92 % 1023,8 hPa 0,0 l/m 1,7 km/h (1 Bft) NO 54 0 min 0,000 mm 0,0 UV-I 28 W/m 1,5 C 2,7 C 6,4 km/h (2 Bft)
15.11.2012 14:05 2,7 C 92 % 1023,8 hPa 0,0 l/m 4,9 km/h (1 Bft) NO 51 0 min 0,026 mm 0,0 UV-I 30 W/m 1,5 C 2,7 C 12,9 km/h (3 Bft)
15.11.2012 14:10 2,7 C 92 % 1023,8 hPa 0,0 l/m 4,7 km/h (1 Bft) O-NO 57 0 min 0,000 mm 0,0 UV-I 28 W/m 1,5 C 2,7 C 9,7 km/h (2 Bft)
15.11.2012 14:15 2,7 C 92 % 1023,7 hPa 0,0 l/m 3,2 km/h (1 Bft) NO 53 0 min 0,000 mm 0,0 UV-I 30 W/m 1,5 C 2,7 C 8,0 km/h (2 Bft)
15.11.2012 14:20 2,6 C 91 % 1023,8 hPa 0,0 l/m 5,5 km/h (1 Bft) NO 56 0 min 0,000 mm 0,0 UV-I 28 W/m 1,3 C 2,6 C 12,9 km/h (3 Bft)
15.11.2012 14:25 2,6 C 92 % 1023,7 hPa 0,0 l/m 2,6 km/h (1 Bft) O 98 0 min 0,000 mm 0,0 UV-I 28 W/m 1,4 C 2,6 C 9,7 km/h (2 Bft)
15.11.2012 14:30 2,4 C 92 % 1023,8 hPa 0,0 l/m 3,2 km/h (1 Bft) O-SO 111 0 min 0,000 mm 0,0 UV-I 26 W/m 1,2 C 2,4 C 9,7 km/h (2 Bft)
15.11.2012 14:35 2,4 C 92 % 1023,8 hPa 0,0 l/m 1,4 km/h (1 Bft) O-SO 114 0 min 0,000 mm 0,0 UV-I 23 W/m 1,2 C 2,4 C 3,2 km/h (1 Bft)
15.11.2012 14:40 2,4 C 92 % 1023,9 hPa 0,0 l/m 2,6 km/h (1 Bft) NO 49 0 min 0,000 mm 0,0 UV-I 23 W/m 1,2 C 2,4 C 6,4 km/h (2 Bft)
15.11.2012 14:45 2,5 C 92 % 1023,9 hPa 0,0 l/m 0,9 km/h (0 Bft) N-NW 342 0 min 0,000 mm 0,0 UV-I 21 W/m 1,3 C 2,5 C 3,2 km/h (1 Bft)
15.11.2012 14:50 2,6 C 92 % 1023,8 hPa 0,0 l/m 3,8 km/h (1 Bft) NO 49 0 min 0,000 mm 0,0 UV-I 21 W/m 1,4 C 2,6 C 8,0 km/h (2 Bft)
15.11.2012 14:55 2,4 C 92 % 1023,8 hPa 0,0 l/m 3,9 km/h (1 Bft) O-SO 106 0 min 0,000 mm 0,0 UV-I 19 W/m 1,2 C 2,4 C 8,0 km/h (2 Bft)
15.11.2012 15:00 2,3 C 92 % 1023,8 hPa 0,0 l/m 5,0 km/h (1 Bft) O-NO 59 0 min 0,000 mm 0,0 UV-I 18 W/m 1,1 C 2,3 C 11,3 km/h (2 Bft)
15.11.2012 15:05 2,4 C 92 % 1023,6 hPa 0,0 l/m 1,1 km/h (1 Bft) O-NO 61 0 min 0,000 mm 0,0 UV-I 16 W/m 1,2 C 2,4 C 3,2 km/h (1 Bft)
15.11.2012 15:10 2,4 C 92 % 1023,6 hPa 0,0 l/m 4,3 km/h (1 Bft) O-NO 67 0 min 0,000 mm 0,0 UV-I 18 W/m 1,2 C 2,4 C 8,0 km/h (2 Bft)
15.11.2012 15:15 2,3 C 92 % 1023,6 hPa 0,0 l/m 7,5 km/h (2 Bft) N-NO 26 0 min 0,000 mm 0,0 UV-I 19 W/m 1,1 C 1,2 C 12,9 km/h (3 Bft)
15.11.2012 15:20 2,3 C 92 % 1023,5 hPa 0,0 l/m 5,4 km/h (1 Bft) O-NO 59 0 min 0,000 mm 0,0 UV-I 18 W/m 1,1 C 2,3 C 11,3 km/h (2 Bft)
15.11.2012 15:25 2,3 C 92 % 1023,6 hPa 0,0 l/m 4,5 km/h (1 Bft) O 86 0 min 0,000 mm 0,0 UV-I 16 W/m 1,1 C 2,3 C 9,7 km/h (2 Bft)
15.11.2012 15:30 2,2 C 92 % 1023,5 hPa 0,0 l/m 6,6 km/h (2 Bft) O 82 0 min 0,000 mm 0,0 UV-I 16 W/m 1,0 C 2,0 C 11,3 km/h (2 Bft)
15.11.2012 15:35 2,2 C 92 % 1023,5 hPa 0,0 l/m 4,5 km/h (1 Bft) O 81 0 min 0,000 mm 0,0 UV-I 14 W/m 1,0 C 2,2 C 9,7 km/h (2 Bft)
15.11.2012 15:40 2,2 C 92 % 1023,5 hPa 0,0 l/m 7,0 km/h (2 Bft) O-SO 107 0 min 0,000 mm 0,0 UV-I 12 W/m 1,0 C 1,6 C 12,9 km/h (3 Bft)
15.11.2012 15:45 2,1 C 92 % 1023,5 hPa 0,0 l/m 4,0 km/h (1 Bft) O 100 0 min 0,000 mm 0,0 UV-I 11 W/m 0,9 C 2,1 C 9,7 km/h (2 Bft)
15.11.2012 15:50 2,1 C 92 % 1023,5 hPa 0,0 l/m 3,0 km/h (1 Bft) O-SO 112 0 min 0,000 mm 0,0 UV-I 7 W/m 0,9 C 2,1 C 8,0 km/h (2 Bft)
15.11.2012 15:55 2,1 C 92 % 1023,5 hPa 0,0 l/m 4,6 km/h (1 Bft) O 82 0 min 0,000 mm 0,0 UV-I 9 W/m 0,9 C 2,1 C 9,7 km/h (2 Bft)
15.11.2012 16:00 2,1 C 92 % 1023,5 hPa 0,0 l/m 5,0 km/h (1 Bft) N-NO 32 0 min 0,000 mm 0,0 UV-I 7 W/m 0,9 C 2,1 C 12,9 km/h (3 Bft)
15.11.2012 16:05 2,1 C 92 % 1023,5 hPa 0,0 l/m 6,1 km/h (2 Bft) O-NO 78 0 min 0,000 mm 0,0 UV-I 5 W/m 0,9 C 2,1 C 11,3 km/h (2 Bft)
15.11.2012 16:10 2,0 C 92 % 1023,5 hPa 0,0 l/m 4,1 km/h (1 Bft) NO 44 0 min 0,000 mm 0,0 UV-I 5 W/m 0,8 C 2,0 C 8,0 km/h (2 Bft)
15.11.2012 16:15 1,9 C 92 % 1023,4 hPa 0,0 l/m 5,1 km/h (1 Bft) O-SO 113 0 min 0,000 mm 0,0 UV-I 0 W/m 0,7 C 1,9 C 11,3 km/h (2 Bft)
15.11.2012 16:20 1,9 C 92 % 1023,4 hPa 0,0 l/m 4,2 km/h (1 Bft) O-SO 103 0 min 0,000 mm 0,0 UV-I 0 W/m 0,7 C 1,9 C 9,7 km/h (2 Bft)
15.11.2012 16:25 1,9 C 92 % 1023,4 hPa 0,0 l/m 3,1 km/h (1 Bft) NO 49 0 min 0,000 mm 0,0 UV-I 0 W/m 0,7 C 1,9 C 11,3 km/h (2 Bft)
15.11.2012 16:30 1,9 C 92 % 1023,3 hPa 0,0 l/m 2,4 km/h (1 Bft) O-NO 60 0 min 0,000 mm 0,0 UV-I 0 W/m 0,7 C 1,9 C 6,4 km/h (2 Bft)
15.11.2012 16:35 1,9 C 92 % 1023,3 hPa 0,0 l/m 2,1 km/h (1 Bft) NO 49 0 min 0,000 mm 0,0 UV-I 0 W/m 0,7 C 1,9 C 4,8 km/h (1 Bft)
15.11.2012 16:40 1,9 C 92 % 1023,3 hPa 0,0 l/m 1,9 km/h (1 Bft) N-NO 33 0 min 0,000 mm 0,0 UV-I 0 W/m 0,7 C 1,9 C 6,4 km/h (2 Bft)
15.11.2012 16:45 1,9 C 92 % 1023,3 hPa 0,0 l/m 2,8 km/h (1 Bft) NO 56 0 min 0,000 mm 0,0 UV-I 0 W/m 0,7 C 1,9 C 6,4 km/h (2 Bft)
15.11.2012 16:50 1,9 C 92 % 1023,3 hPa 0,0 l/m 2,6 km/h (1 Bft) O-NO 60 0 min 0,000 mm 0,0 UV-I 0 W/m 0,7 C 1,9 C 4,8 km/h (1 Bft)
15.11.2012 16:55 1,9 C 92 % 1023,3 hPa 0,0 l/m 2,7 km/h (1 Bft) O-NO 59 0 min 0,000 mm 0,0 UV-I 0 W/m 0,7 C 1,9 C 6,4 km/h (2 Bft)
15.11.2012 17:00 1,9 C 92 % 1023,3 hPa 0,0 l/m 1,1 km/h (1 Bft) NO 41 0 min 0,000 mm 0,0 UV-I 0 W/m 0,7 C 1,9 C 3,2 km/h (1 Bft)
15.11.2012 17:05 1,9 C 92 % 1023,3 hPa 0,0 l/m 0,8 km/h (0 Bft) O-SO 114 0 min 0,000 mm 0,0 UV-I 0 W/m 0,7 C 1,9 C 3,2 km/h (1 Bft)
15.11.2012 17:10 1,9 C 92 % 1023,3 hPa 0,0 l/m 3,8 km/h (1 Bft) O 96 0 min 0,000 mm 0,0 UV-I 0 W/m 0,7 C 1,9 C 8,0 km/h (2 Bft)
15.11.2012 17:15 1,9 C 92 % 1023,2 hPa 0,0 l/m 3,6 km/h (1 Bft) O-SO 119 0 min 0,000 mm 0,0 UV-I 0 W/m 0,7 C 1,9 C 8,0 km/h (2 Bft)
15.11.2012 17:20 1,8 C 91 % 1023,3 hPa 0,0 l/m 3,8 km/h (1 Bft) O-SO 115 0 min 0,000 mm 0,0 UV-I 0 W/m 0,5 C 1,8 C 11,3 km/h (2 Bft)
15.11.2012 17:25 1,8 C 91 % 1023,2 hPa 0,0 l/m 3,9 km/h (1 Bft) O 80 0 min 0,000 mm 0,0 UV-I 0 W/m 0,5 C 1,8 C 8,0 km/h (2 Bft)
15.11.2012 17:30 1,8 C 92 % 1023,1 hPa 0,0 l/m 2,5 km/h (1 Bft) O-SO 114 0 min 0,000 mm 0,0 UV-I 0 W/m 0,6 C 1,8 C 4,8 km/h (1 Bft)
15.11.2012 17:35 1,8 C 92 % 1023,1 hPa 0,0 l/m 1,8 km/h (1 Bft) S-SO 147 0 min 0,000 mm 0,0 UV-I 0 W/m 0,6 C 1,8 C 6,4 km/h (2 Bft)
15.11.2012 17:40 1,8 C 91 % 1023,2 hPa 0,0 l/m 4,5 km/h (1 Bft) O 94 0 min 0,000 mm 0,0 UV-I 0 W/m 0,5 C 1,8 C 9,7 km/h (2 Bft)
15.11.2012 17:45 1,8 C 91 % 1023,2 hPa 0,0 l/m 3,5 km/h (1 Bft) O-NO 59 0 min 0,000 mm 0,0 UV-I 0 W/m 0,5 C 1,8 C 11,3 km/h (2 Bft)
15.11.2012 17:50 1,8 C 91 % 1023,1 hPa 0,0 l/m 5,9 km/h (2 Bft) NO 50 0 min 0,000 mm 0,0 UV-I 0 W/m 0,5 C 1,8 C 11,3 km/h (2 Bft)
15.11.2012 17:55 1,8 C 91 % 1023,1 hPa 0,0 l/m 3,4 km/h (1 Bft) O-NO 61 0 min 0,000 mm 0,0 UV-I 0 W/m 0,5 C 1,8 C 8,0 km/h (2 Bft)
15.11.2012 18:00 1,8 C 91 % 1023,3 hPa 0,0 l/m 3,5 km/h (1 Bft) O 95 0 min 0,000 mm 0,0 UV-I 0 W/m 0,5 C 1,8 C 6,4 km/h (2 Bft)
15.11.2012 18:05 1,8 C 91 % 1023,3 hPa 0,0 l/m 4,8 km/h (1 Bft) O-NO 68 0 min 0,000 mm 0,0 UV-I 0 W/m 0,5 C 1,8 C 8,0 km/h (2 Bft)
15.11.2012 18:10 1,8 C 91 % 1023,3 hPa 0,0 l/m 4,3 km/h (1 Bft) O-NO 61 0 min 0,000 mm 0,0 UV-I 0 W/m 0,5 C 1,8 C 8,0 km/h (2 Bft)
15.11.2012 18:15 1,8 C 91 % 1023,3 hPa 0,0 l/m 2,8 km/h (1 Bft) NO 55 0 min 0,000 mm 0,0 UV-I 0 W/m 0,5 C 1,8 C 6,4 km/h (2 Bft)
15.11.2012 18:20 1,8 C 91 % 1023,2 hPa 0,0 l/m 4,6 km/h (1 Bft) NO 48 0 min 0,000 mm 0,0 UV-I 0 W/m 0,5 C 1,8 C 11,3 km/h (2 Bft)
15.11.2012 18:25 1,8 C 91 % 1023,3 hPa 0,0 l/m 3,1 km/h (1 Bft) O 85 0 min 0,000 mm 0,0 UV-I 0 W/m 0,5 C 1,8 C 6,4 km/h (2 Bft)
15.11.2012 18:30 1,8 C 91 % 1023,3 hPa 0,0 l/m 3,8 km/h (1 Bft) O 83 0 min 0,000 mm 0,0 UV-I 0 W/m 0,5 C 1,8 C 8,0 km/h (2 Bft)
15.11.2012 18:35 1,8 C 90 % 1023,2 hPa 0,0 l/m 4,3 km/h (1 Bft) O 81 0 min 0,000 mm 0,0 UV-I 0 W/m 0,3 C 1,8 C 11,3 km/h (2 Bft)
15.11.2012 18:40 1,8 C 91 % 1023,2 hPa 0,0 l/m 1,7 km/h (1 Bft) O 93 0 min 0,000 mm 0,0 UV-I 0 W/m 0,5 C 1,8 C 8,0 km/h (2 Bft)
15.11.2012 18:45 1,8 C 91 % 1023,1 hPa 0,0 l/m 1,7 km/h (1 Bft) O-SO 105 0 min 0,000 mm 0,0 UV-I 0 W/m 0,5 C 1,8 C 8,0 km/h (2 Bft)
15.11.2012 18:50 1,8 C 91 % 1023,1 hPa 0,0 l/m 1,3 km/h (1 Bft) O-SO 121 0 min 0,000 mm 0,0 UV-I 0 W/m 0,5 C 1,8 C 4,8 km/h (1 Bft)
15.11.2012 18:55 1,8 C 91 % 1023,0 hPa 0,0 l/m 2,6 km/h (1 Bft) O 94 0 min 0,000 mm 0,0 UV-I 0 W/m 0,5 C 1,8 C 6,4 km/h (2 Bft)
15.11.2012 19:00 1,8 C 91 % 1023,0 hPa 0,0 l/m 1,5 km/h (1 Bft) O 88 0 min 0,000 mm 0,0 UV-I 0 W/m 0,5 C 1,8 C 3,2 km/h (1 Bft)
15.11.2012 19:05 1,8 C 91 % 1023,0 hPa 0,0 l/m 0,5 km/h (0 Bft) O 88 0 min 0,000 mm 0,0 UV-I 0 W/m 0,5 C 1,8 C 3,2 km/h (1 Bft)
15.11.2012 19:10 1,8 C 91 % 1023,0 hPa 0,0 l/m 0,3 km/h (0 Bft) O 88 0 min 0,000 mm 0,0 UV-I 0 W/m 0,5 C 1,8 C 1,6 km/h (1 Bft)
15.11.2012 19:15 1,8 C 91 % 1023,0 hPa 0,0 l/m 1,9 km/h (1 Bft) O-SO 108 0 min 0,000 mm 0,0 UV-I 0 W/m 0,5 C 1,8 C 6,4 km/h (2 Bft)
15.11.2012 19:20 1,8 C 90 % 1023,0 hPa 0,0 l/m 5,5 km/h (1 Bft) O-SO 112 0 min 0,000 mm 0,0 UV-I 0 W/m 0,3 C 1,8 C 11,3 km/h (2 Bft)
15.11.2012 19:25 1,8 C 90 % 1023,2 hPa 0,0 l/m 4,4 km/h (1 Bft) NO 44 0 min 0,000 mm 0,0 UV-I 0 W/m 0,3 C 1,8 C 11,3 km/h (2 Bft)
15.11.2012 19:30 1,7 C 90 % 1023,1 hPa 0,0 l/m 2,7 km/h (1 Bft) O 96 0 min 0,000 mm 0,0 UV-I 0 W/m 0,2 C 1,7 C 8,0 km/h (2 Bft)
15.11.2012 19:35 1,7 C 90 % 1023,1 hPa 0,0 l/m 4,1 km/h (1 Bft) O-SO 105 0 min 0,000 mm 0,0 UV-I 0 W/m 0,2 C 1,7 C 9,7 km/h (2 Bft)
15.11.2012 19:40 1,7 C 90 % 1023,1 hPa 0,0 l/m 4,5 km/h (1 Bft) O 96 0 min 0,000 mm 0,0 UV-I 0 W/m 0,2 C 1,7 C 11,3 km/h (2 Bft)
15.11.2012 19:45 1,6 C 90 % 1023,1 hPa 0,0 l/m 3,9 km/h (1 Bft) O-SO 103 0 min 0,000 mm 0,0 UV-I 0 W/m 0,1 C 1,6 C 9,7 km/h (2 Bft)
15.11.2012 19:50 1,6 C 90 % 1023,1 hPa 0,0 l/m 2,3 km/h (1 Bft) O-NO 75 0 min 0,000 mm 0,0 UV-I 0 W/m 0,1 C 1,6 C 4,8 km/h (1 Bft)
15.11.2012 19:55 1,6 C 90 % 1023,1 hPa 0,0 l/m 2,3 km/h (1 Bft) O-SO 113 0 min 0,000 mm 0,0 UV-I 0 W/m 0,1 C 1,6 C 8,0 km/h (2 Bft)
15.11.2012 20:00 1,6 C 90 % 1023,0 hPa 0,0 l/m 1,3 km/h (1 Bft) SO 125 0 min 0,000 mm 0,0 UV-I 0 W/m 0,1 C 1,6 C 4,8 km/h (1 Bft)
15.11.2012 20:05 1,6 C 90 % 1023,0 hPa 0,0 l/m 2,1 km/h (1 Bft) O 92 0 min 0,000 mm 0,0 UV-I 0 W/m 0,1 C 1,6 C 8,0 km/h (2 Bft)
15.11.2012 20:10 1,6 C 90 % 1023,1 hPa 0,0 l/m 2,0 km/h (1 Bft) O 87 0 min 0,000 mm 0,0 UV-I 0 W/m 0,1 C 1,6 C 8,0 km/h (2 Bft)
15.11.2012 20:15 1,6 C 90 % 1023,1 hPa 0,0 l/m 2,5 km/h (1 Bft) O 92 0 min 0,000 mm 0,0 UV-I 0 W/m 0,1 C 1,6 C 9,7 km/h (2 Bft)
15.11.2012 20:20 1,6 C 90 % 1023,1 hPa 0,0 l/m 2,5 km/h (1 Bft) O-SO 113 0 min 0,000 mm 0,0 UV-I 0 W/m 0,1 C 1,6 C 8,0 km/h (2 Bft)
15.11.2012 20:25 1,6 C 90 % 1023,2 hPa 0,0 l/m 1,4 km/h (1 Bft) O-SO 103 0 min 0,000 mm 0,0 UV-I 0 W/m 0,1 C 1,6 C 3,2 km/h (1 Bft)
15.11.2012 20:30 1,6 C 91 % 1023,0 hPa 0,0 l/m 2,4 km/h (1 Bft) O 92 0 min 0,000 mm 0,0 UV-I 0 W/m 0,3 C 1,6 C 6,4 km/h (2 Bft)
15.11.2012 20:35 1,6 C 90 % 1023,0 hPa 0,0 l/m 1,0 km/h (0 Bft) O-SO 116 0 min 0,000 mm 0,0 UV-I 0 W/m 0,1 C 1,6 C 3,2 km/h (1 Bft)
15.11.2012 20:40 1,6 C 91 % 1023,0 hPa 0,0 l/m 0,9 km/h (0 Bft) NO 46 0 min 0,000 mm 0,0 UV-I 0 W/m 0,3 C 1,6 C 3,2 km/h (1 Bft)
15.11.2012 20:45 1,6 C 91 % 1022,8 hPa 0,0 l/m 2,3 km/h (1 Bft) O-NO 63 0 min 0,000 mm 0,0 UV-I 0 W/m 0,3 C 1,6 C 6,4 km/h (2 Bft)
15.11.2012 20:50 1,6 C 91 % 1022,8 hPa 0,0 l/m 4,1 km/h (1 Bft) O 94 0 min 0,000 mm 0,0 UV-I 0 W/m 0,3 C 1,6 C 8,0 km/h (2 Bft)
15.11.2012 20:55 1,6 C 91 % 1022,8 hPa 0,0 l/m 5,0 km/h (1 Bft) O-NO 61 0 min 0,000 mm 0,0 UV-I 0 W/m 0,3 C 1,6 C 9,7 km/h (2 Bft)
15.11.2012 21:00 1,5 C 91 % 1022,8 hPa 0,0 l/m 2,5 km/h (1 Bft) O 101 0 min 0,000 mm 0,0 UV-I 0 W/m 0,2 C 1,5 C 8,0 km/h (2 Bft)
15.11.2012 21:05 1,6 C 91 % 1022,7 hPa 0,0 l/m 1,2 km/h (1 Bft) O 101 0 min 0,000 mm 0,0 UV-I 0 W/m 0,3 C 1,6 C 4,8 km/h (1 Bft)
15.11.2012 21:10 1,6 C 91 % 1022,7 hPa 0,0 l/m 3,2 km/h (1 Bft) O-SO 115 0 min 0,000 mm 0,0 UV-I 0 W/m 0,3 C 1,6 C 8,0 km/h (2 Bft)
15.11.2012 21:15 1,6 C 91 % 1022,7 hPa 0,0 l/m 3,7 km/h (1 Bft) O-NO 61 0 min 0,000 mm 0,0 UV-I 0 W/m 0,3 C 1,6 C 8,0 km/h (2 Bft)
15.11.2012 21:20 1,6 C 91 % 1022,7 hPa 0,0 l/m 3,9 km/h (1 Bft) O 98 0 min 0,000 mm 0,0 UV-I 0 W/m 0,3 C 1,6 C 8,0 km/h (2 Bft)
15.11.2012 21:25 1,6 C 91 % 1022,7 hPa 0,0 l/m 2,9 km/h (1 Bft) O 92 0 min 0,000 mm 0,0 UV-I 0 W/m 0,3 C 1,6 C 8,0 km/h (2 Bft)
15.11.2012 21:30 1,6 C 91 % 1022,8 hPa 0,0 l/m 4,5 km/h (1 Bft) SO 134 0 min 0,000 mm 0,0 UV-I 0 W/m 0,3 C 1,6 C 9,7 km/h (2 Bft)
15.11.2012 21:35 1,6 C 91 % 1022,8 hPa 0,0 l/m 3,4 km/h (1 Bft) SO 138 0 min 0,000 mm 0,0 UV-I 0 W/m 0,3 C 1,6 C 11,3 km/h (2 Bft)
15.11.2012 21:40 1,6 C 91 % 1022,8 hPa 0,0 l/m 4,6 km/h (1 Bft) S-SW 193 0 min 0,000 mm 0,0 UV-I 0 W/m 0,3 C 1,6 C 11,3 km/h (2 Bft)
15.11.2012 21:45 1,6 C 91 % 1022,8 hPa 0,0 l/m 2,9 km/h (1 Bft) SW 220 0 min 0,000 mm 0,0 UV-I 0 W/m 0,3 C 1,6 C 6,4 km/h (2 Bft)
15.11.2012 21:50 1,6 C 91 % 1022,8 hPa 0,0 l/m 1,0 km/h (0 Bft) O 95 0 min 0,000 mm 0,0 UV-I 0 W/m 0,3 C 1,6 C 4,8 km/h (1 Bft)
15.11.2012 21:55 1,6 C 91 % 1022,9 hPa 0,0 l/m 4,3 km/h (1 Bft) O-SO 104 0 min 0,000 mm 0,0 UV-I 0 W/m 0,3 C 1,6 C 8,0 km/h (2 Bft)
15.11.2012 22:00 1,5 C 91 % 1022,8 hPa 0,0 l/m 5,4 km/h (1 Bft) O-NO 74 0 min 0,000 mm 0,0 UV-I 0 W/m 0,2 C 1,5 C 11,3 km/h (2 Bft)
15.11.2012 22:05 1,4 C 91 % 1022,7 hPa 0,0 l/m 4,6 km/h (1 Bft) O 100 0 min 0,000 mm 0,0 UV-I 0 W/m 0,1 C 1,4 C 11,3 km/h (2 Bft)
15.11.2012 22:10 1,4 C 91 % 1022,6 hPa 0,0 l/m 1,4 km/h (1 Bft) O 85 0 min 0,000 mm 0,0 UV-I 0 W/m 0,1 C 1,4 C 4,8 km/h (1 Bft)
15.11.2012 22:15 1,4 C 91 % 1022,6 hPa 0,0 l/m 1,6 km/h (1 Bft) O-NO 73 0 min 0,000 mm 0,0 UV-I 0 W/m 0,1 C 1,4 C 4,8 km/h (1 Bft)
15.11.2012 22:20 1,4 C 91 % 1022,5 hPa 0,0 l/m 2,5 km/h (1 Bft) SO 138 0 min 0,000 mm 0,0 UV-I 0 W/m 0,1 C 1,4 C 6,4 km/h (2 Bft)
15.11.2012 22:25 1,3 C 91 % 1022,4 hPa 0,0 l/m 3,8 km/h (1 Bft) O 91 0 min 0,000 mm 0,0 UV-I 0 W/m -0,0 C 1,3 C 8,0 km/h (2 Bft)
15.11.2012 22:30 1,3 C 91 % 1022,4 hPa 0,0 l/m 2,5 km/h (1 Bft) S-SO 159 0 min 0,000 mm 0,0 UV-I 0 W/m -0,0 C 1,3 C 6,4 km/h (2 Bft)
15.11.2012 22:35 1,3 C 91 % 1022,4 hPa 0,0 l/m 4,6 km/h (1 Bft) S-SW 203 0 min 0,000 mm 0,0 UV-I 0 W/m -0,0 C 1,3 C 8,0 km/h (2 Bft)
15.11.2012 22:40 1,3 C 91 % 1022,3 hPa 0,0 l/m 3,8 km/h (1 Bft) O-NO 72 0 min 0,000 mm 0,0 UV-I 0 W/m -0,0 C 1,3 C 9,7 km/h (2 Bft)
15.11.2012 22:45 1,3 C 91 % 1022,4 hPa 0,0 l/m 6,8 km/h (2 Bft) O 99 0 min 0,000 mm 0,0 UV-I 0 W/m -0,0 C 0,9 C 11,3 km/h (2 Bft)
15.11.2012 22:50 1,3 C 91 % 1022,4 hPa 0,0 l/m 4,1 km/h (1 Bft) O 99 0 min 0,000 mm 0,0 UV-I 0 W/m -0,0 C 1,3 C 8,0 km/h (2 Bft)
15.11.2012 22:55 1,2 C 91 % 1022,4 hPa 0,0 l/m 3,9 km/h (1 Bft) O-NO 57 0 min 0,000 mm 0,0 UV-I 0 W/m -0,1 C 1,2 C 8,0 km/h (2 Bft)
15.11.2012 23:00 1,2 C 91 % 1022,2 hPa 0,0 l/m 2,7 km/h (1 Bft) O 93 0 min 0,000 mm 0,0 UV-I 0 W/m -0,1 C 1,2 C 6,4 km/h (2 Bft)
15.11.2012 23:05 1,2 C 91 % 1022,3 hPa 0,0 l/m 4,2 km/h (1 Bft) O 93 0 min 0,000 mm 0,0 UV-I 0 W/m -0,1 C 1,2 C 9,7 km/h (2 Bft)
15.11.2012 23:10 1,2 C 92 % 1022,1 hPa 0,0 l/m 5,8 km/h (2 Bft) O-SO 103 0 min 0,000 mm 0,0 UV-I 0 W/m 0,0 C 1,2 C 11,3 km/h (2 Bft)
15.11.2012 23:15 1,2 C 92 % 1022,2 hPa 0,0 l/m 4,4 km/h (1 Bft) S-SO 165 0 min 0,000 mm 0,0 UV-I 0 W/m 0,0 C 1,2 C 11,3 km/h (2 Bft)
15.11.2012 23:20 1,2 C 92 % 1022,1 hPa 0,0 l/m 4,8 km/h (1 Bft) S 178 0 min 0,000 mm 0,0 UV-I 0 W/m 0,0 C 1,2 C 9,7 km/h (2 Bft)
15.11.2012 23:25 1,2 C 92 % 1022,2 hPa 0,0 l/m 3,2 km/h (1 Bft) S 172 0 min 0,000 mm 0,0 UV-I 0 W/m 0,0 C 1,2 C 11,3 km/h (2 Bft)
15.11.2012 23:30 1,2 C 92 % 1022,2 hPa 0,0 l/m 4,5 km/h (1 Bft) S 169 0 min 0,000 mm 0,0 UV-I 0 W/m 0,0 C 1,2 C 11,3 km/h (2 Bft)
15.11.2012 23:35 1,2 C 92 % 1022,2 hPa 0,0 l/m 5,9 km/h (2 Bft) O-SO 113 0 min 0,000 mm 0,0 UV-I 0 W/m 0,0 C 1,2 C 12,9 km/h (3 Bft)
15.11.2012 23:40 1,2 C 92 % 1022,3 hPa 0,0 l/m 4,8 km/h (1 Bft) O 93 0 min 0,000 mm 0,0 UV-I 0 W/m 0,0 C 1,2 C 9,7 km/h (2 Bft)
15.11.2012 23:45 1,1 C 92 % 1022,2 hPa 0,0 l/m 5,0 km/h (1 Bft) O-SO 117 0 min 0,000 mm 0,0 UV-I 0 W/m -0,1 C 1,1 C 9,7 km/h (2 Bft)
15.11.2012 23:50 1,1 C 92 % 1022,1 hPa 0,0 l/m 2,9 km/h (1 Bft) O 93 0 min 0,000 mm 0,0 UV-I 0 W/m -0,1 C 1,1 C 11,3 km/h (2 Bft)
15.11.2012 23:55 1,1 C 92 % 1021,9 hPa 0,0 l/m 5,7 km/h (1 Bft) O-SO 106 0 min 0,000 mm 0,0 UV-I 0 W/m -0,1 C 1,1 C 11,3 km/h (2 Bft)
_ Min-Zeit 23:45 18:35 23:55 - 00:45 - - - - - - 22:55 22:45 00:45
Minimum _ 1,1 C 90 % 1021,9 hPa - 0,0 km/h (0 Bft) - - - - - - -0,1 C 0,9 C 0,0 km/h (0 Bft)
_ Max-Zeit 10:00 00:00 00:00 00:00 13:00 - - 00:00 12:05 00:00 12:35 10:00 10:00 13:40
Maximum _ 3,3 C 95 % 1026,9 hPa 0,0 l/m 7,5 km/h
NO (2 Bft)
- - 0 min 0,026 mm 0,0 UV-I 49 W/m 2,1 C 3,3 C 12,9 km/h
O-SO (3 Bft)
Durchschnitt _ 2,4 C 92 % 1024,4 hPa #0,0 l/m 2,4 km/h (1 Bft) O - #0 min. #0,102 mm 0,0 UV-I 27 W/m 1,2 C 2,4 C 6,3 km/h (2 Bft)